Weather in Lesnoy Vyas

Russia / Penza Oblast     53°46′28″N   45°28′21″E
temp.,
°C
wind,
m/s
gust,
m/s
humid.,
%
clouds,
%
prec.,
mm/h
press.,
hPa
HPBL,
m
7 march, sun
sun700:00−10w1197100 0.6 101321
03:00−11wnw2297100 0.8 101325
06:00−16w229874 0.0 101420
09:00−12sw369549 0.1 1013256
12:00−7sw6118699 0.0 1011659
15:00−7sw8138699 0.0 1007823
18:00−6sw81593100 0.8 10041085
21:00−5sw91793100 2.4 10001166
8 march, mon
mon800:00−4sw91694100 0.9 996987
03:00−3wsw91595100 2.1 995994
06:00−8wsw6159151 0.3 998657
09:00−7wsw7138645 0.3 1001695
12:00−4sw71283100 0.0 10001108
15:00−3sw71191100 0.4 999997
18:00−6wsw51285100 2.6 1000609
21:00−7w51190100 2.8 1003604
9 march, tue
tue900:00−14w35930 0.0 100577
03:00−16w239810 0.0 100734
06:00−17w229991 0.0 100921
09:00−14wnw359596 0.1 1011292
12:00−11wnw4591100 0.1 1011495
15:00−11wnw4588100 0.1 1013651
18:00−14wnw3595100 0.1 1014110
21:00−16nw2497100 0.1 101681
10 march, wed
wed1000:00−20nw2210086 0.0 101721
03:00−23wnw2310088 0.1 101821
06:00−25wnw23100100 0.0 101930
09:00−22nw3697100 0.1 1021316
12:00−19nw4692100 0.0 1022518
15:00−18nw5788100 0.1 1022638
18:00−22nw2398100 0.0 102323
21:00−25nw229989 0.1 102620
11 march, thu
thu1100:00−28wnw22980 0.0 102620
03:00−28w22980 0.0 102719
06:00−28w22960 0.0 102820
09:00−21w35880 0.0 1029232
12:00−16w45790 0.0 1028328
15:00−13wsw46850 0.0 1028349
18:00−18sw34920 0.0 102847
21:00−21ssw34910 0.0 102941